Skip Page Navigation
NASA JPL Caltech
NASA Logo - Jet Propulsion Laboratory + View the NASA Portal
+ Center for Near-Earth Object Studies
JPL Home Earth Solar System Stars & Galaxies Technology
JPL Solar System Dynamics
BODIES ORBITS EPHEMERIDES TOOLS PHYSICAL DATA DISCOVERY FAQ SITE MAP

Significant website upgrade scheduled for September 27. More details available here.

JPL Small-Body Database Browser
Search: [ help ]  
(2019 UE13)
Classification: Aten [NEO]          SPK-ID: 3892010
Ephemeris | Orbit Diagram | Orbital Elements | Mission Design | Physical Parameters | Close-Approach Data ]

[ show orbit diagram ]
Orbital Elements at Epoch 2459396.5 (2021-Jul-01.0) TDB
Reference: JPL 7 (heliocentric ecliptic J2000)
 Element Value Uncertainty (1-sigma)   Units 
e .3609288509143549 0.00027198  
a .8042177791194042 8.9756e-05 au
q .5139523802169431 0.00027609 au
i 7.449813601955946 0.0082378 deg
node 216.7840849529115 0.00096971 deg
peri 333.2864885398435 0.002839 deg
M 345.0704668326025 0.15868 deg
tp 2459407.424527418587
(2021-Jul-11.92452742)
0.11794 TDB
period 263.4261786081624
0.72
0.0441
0.0001207
d
yr
n 1.366606773488097 0.00022878 deg/d
Q 1.094483178021865 0.00012215 au
  Orbit Determination Parameters
   # obs. used (total)      34  
   data-arc span      7 days  
   first obs. used      2019-10-28  
   last obs. used      2019-11-04  
   planetary ephem.      DE441  
   SB-pert. ephem.      SB441-N16  
   condition code      7  
   norm. resid. RMS      .34403  
   source      ORB  
   producer      Otto Matic  
   solution date      2021-Apr-15 22:01:04  

Additional Information
 Earth MOID = .017727 au 
 Jupiter MOID = 3.86273 au 
 T_jup = 7.197 
[ show covariance matrix ]

Ephemeris | Orbit Diagram | Orbital Elements | Mission Design | Physical Parameters | Close-Approach Data ]

Physical Parameter Table
Parameter Symbol Value Units Sigma Reference Notes
absolute magnitude H 25.7   .25176 E2019Y12 autocmod 2.8

[ show close-approach data ]
Ephemeris | Orbit Diagram | Orbital Elements | Mission Design | Physical Parameters | Close-Approach Data ]
ABOUT SSD CREDITS/AWARDS PRIVACY/COPYRIGHT GLOSSARY LINKS
FirstGov 2021-Sep-17 14:50 UT
(server date/time)  
NASA Home Page
Site Manager:   Ryan S. Park
Webmaster  Alan B. Chamberlin